Hourly Data Report for August 11, 2022

MIRAMICHI RCS
NEW BRUNSWICK
Current Station Operator: ECCC - MSC

47°00'34.000" N
65°27'54.000" W
33.00 m
8100989
71744
ACQ

Download Data

Hourly Data (August 2022)
Hourly Data Report for August 11, 2022
TIME
LST
Temp Definition
°C
Dew Point Definition
°C
Rel Hum Definition
%
Precip. Amount Definition
mm

Wind Dir Definition
10's deg

Wind Spd Definition
km/h
Visibility Definition
km
Stn Press Definition
kPa
Hmdx Definition


Wind Chill Definition


Weather Definition


00:00 17.2 15.9 92 0.0 17 1   101.13     LegendNANA
01:00 17.1 15.9 92 0.0 21 2   101.10     LegendNANA
02:00 17.0 15.8 92 0.0 0 1   101.06     LegendNANA
03:00 16.8 15.8 94 0.0 20 3   101.05     LegendNANA
04:00 16.8 15.8 94 0.0 22 4   100.98     LegendNANA
05:00 16.8 15.8 94 0.0 19 4   100.94     LegendNANA
06:00 16.8 15.8 94 0.0 0 1   100.93     LegendNANA
07:00 17.4 16.1 92 0.0 21 4   100.90     LegendNANA
08:00 19.2 16.7 85 0.0 25 7   100.88     LegendNANA
09:00 20.5 16.8 79 0.0 19 12   100.87 26   LegendNANA
10:00 22.4 16.7 70 0.0 19 14   100.80 27   LegendNANA
11:00 23.1 16.5 66 0.0 21 16   100.78 28   LegendNANA
12:00 22.6 17.0 71 0.0 24 12   100.76 28   LegendNANA
13:00 23.7 17.0 66 0.0 21 16   100.72 29   LegendNANA
14:00 23.3 17.0 68 0.0 23 12   100.70 29   LegendNANA
15:00 23.7 17.7 69 0.0 22 13   100.70 29   LegendNANA
16:00 24.0 16.9 65 0.0 23 14   100.66 29   LegendNANA
17:00 23.4 16.6 65 0.0 23 15   100.65 28   LegendNANA
18:00 23.0 17.4 71 0.0 24 7   100.62 29   LegendNANA
19:00 22.1 17.7 76 0.0 20 6   100.65 28   LegendNANA
20:00 21.2 17.7 80 0.0 20 2   100.67 27   LegendNANA
21:00 20.3 17.7 85 0.0 19 9   100.74 26   LegendNANA
22:00 19.6 17.1 85 0.0 20 4   100.74     LegendNANA
23:00 19.5 17.1 86 0.0 20 11   100.74     LegendNANA

Notes on Data Quality.

Legend

  • E = Estimated
  • M = Missing
  • NA = Not Available*
  • [empty] = Indicates an unobserved value
Date modified: